FW0502 Weather Reports


time (UTC)temp
F
wind
direction
speed
knots
gust
knots
rain 1hr
in
rain 24hr
in
rain mn
in
humidity
%
barometer
mb
20260504044529 52 7.0 10.4 0.00 0.00 0.00 41 1013.1
20260504043026 52 6.1 10.4 0.00 0.00 0.00 42 1012.7
20260504041523 51 0.9 3.5 0.00 0.00 0.00 46 1012.4
20260504040023 51 0.0 5.2 0.00 0.00 0.00 44 1011.9
20260504034523 52 4.3 9.6 0.00 0.00 0.00 43 1011.3
20260504033022 52 7.0 13.0 0.00 0.00 0.00 43 1010.8
20260504031521 53 8.7 13.9 0.00 0.00 0.00 41 1010.3
20260504030021 54 7.0 12.2 0.00 0.00 0.00 40 1010.0
20260504024520 55 5.2 13.0 0.00 0.00 0.00 39 1009.8
20260504023020 57 8.7 20.0 0.00 0.00 0.00 37 1009.2
20260504021518 59 13.0 18.2 0.00 0.00 0.00 33 1008.9
20260504020018 61 8.7 15.6 0.00 0.00 0.00 31 1008.4
20260504014535 62 11.3 19.1 0.00 0.00 0.00 30 1008.1
20260504013017 63 13.0 19.1 0.00 0.00 0.00 29 1007.9
20260504011516 64 13.0 20.0 0.00 0.00 0.00 28 1007.4
20260504010016 65 14.8 20.0 0.00 0.00 0.00 27 1007.5
20260504004517 67 11.3 16.5 0.00 0.00 0.00 26 1007.4
20260504003015 68 10.4 17.4 0.00 0.00 0.00 26 1007.3
20260504001513 68 13.0 18.2 0.00 0.00 0.00 27 1007.0
20260504000030 69 13.9 18.2 0.00 0.00 0.00 26 1006.9
20260503234511 70 13.0 19.1 0.00 0.00 0.00 25 1006.8
20260503233009 71 12.2 18.2 0.00 0.00 0.00 23 1006.7
20260503231507 72 8.7 15.6 0.00 0.00 0.00 22 1006.7
20260503230006 72 7.8 13.9 0.00 0.00 0.00 22 1006.9
20260503224504 73 10.4 15.6 0.00 0.00 0.00 21 1006.9
20260503223003 73 7.8 15.6 0.00 0.00 0.00 20 1007.0
20260503221501 72 1.7 13.0 0.00 0.00 0.00 23 1007.3
20260503220106 73 7.8 14.8 0.00 0.00 0.00 19 1007.4
20260503214559 73 3.5 8.7 0.00 0.00 0.00 20 1007.5
20260503213057 72 1.7 10.4 0.00 0.00 0.00 21 1007.6
20260503211555 72 3.5 8.7 0.00 0.00 0.00 21 1007.9
20260503210058 73 7.8 13.0 0.00 0.00 0.00 20 1008.2
20260503204607 72 7.0 11.3 0.00 0.00 0.00 20 1008.2
20260503203059 71 7.8 13.0 0.00 0.00 0.00 22 1008.4
20260503201549 71 7.0 11.3 0.00 0.00 0.00 21 1008.4
20260503200047 71 9.6 14.8 0.00 0.00 0.00 21 1008.7
20260503194556 70 5.2 13.0 0.00 0.00 0.00 23 1009.0
20260503193043 70 3.5 15.6 0.00 0.00 0.00 23 1009.3
20260503191543 70 6.1 11.3 0.00 0.00 0.00 23 1009.5
20260503190045 70 8.7 13.9 0.00 0.00 0.00 22 1009.8
20260503184537 70 5.2 16.5 0.00 0.00 0.00 23 1009.9
20260503183033 69 6.1 14.8 0.00 0.00 0.00 24 1010.3
20260503181533 69 7.0 14.8 0.00 0.00 0.00 23 1010.6
20260503180029 69 5.2 12.2 0.00 0.00 0.00 24 1010.8
20260503174526 68 7.0 14.8 0.00 0.00 0.00 24 1010.9
20260503173027 67 1.7 8.7 0.00 0.00 0.00 26 1011.0
20260503171522 66 5.2 9.6 0.00 0.00 0.00 26 1011.2
20260503081505 41 4.3 7.0 0.00 0.00 0.00 71 1012.3
20260503071558 42 0.9 2.6 0.00 0.00 0.00 80 1012.1
20260503054542 44 0.0 2.6 0.00 0.00 0.00 70 1012.1
20260503053042 45 0.0 2.6 0.00 0.00 0.00 69 1012.2